Overview Statistics Trail Chart Weather Telemetry Raw packets
 

This is the latest recevied weather packets stored in our database for station/object OE-11190. If no packets are shown the sender has not sent any weather packets the latest 10 day(s).

<< 8 9 10 11 12 13 14 >>
Time Temp. Humidity Pressure Rain* Wind** Luminosity Snow
1788249908 22.78° C 55% 1020.3 hPa 0 mm - 531 W/m² -
1788249308 22.22° C 54% 1020.2 hPa 0 mm - 508 W/m² -
1788248707 22.22° C 56% 1020.2 hPa 0 mm - 485 W/m² -
1788248108 21.67° C 56% 1020.1 hPa 0 mm - 455 W/m² -
1788247508 21.67° C 58% 1020.1 hPa 0 mm - 432 W/m² -
1788246908 21.67° C 58% 1020.2 hPa 0 mm - 409 W/m² -
1788246308 21.11° C 60% 1020 hPa 0 mm - 387 W/m² -
1788245708 21.11° C 60% 1020 hPa 0 mm - 356 W/m² -
1788245108 20.56° C 62% 1019.9 hPa 0 mm - 334 W/m² -
1788244508 20.56° C 62% 1019.9 hPa 0 mm - 303 W/m² -
1788243307 20° C 63% 1019.8 hPa 0 mm - 243 W/m² -
1788242708 19.44° C 63% 1019.5 hPa 0 mm - 220 W/m² -
1788242108 19.44° C 63% 1019.7 hPa 0 mm - 190 W/m² -
1788241508 19.44° C 64% 1019.5 hPa 0 mm - 167 W/m² -
1788240908 18.89° C 64% 1019.5 hPa 0 mm - 136 W/m² -
1788240308 18.33° C 67% 1019.5 hPa 0 mm - 114 W/m² -
1788239708 18.33° C 67% 1019.4 hPa 0 mm - 83 W/m² -
1788239108 18.33° C 67% 1019.6 hPa 0 mm - 61 W/m² -
1788238508 18.33° C 68% 1019.2 hPa 0 mm - 38 W/m² -
1788237908 18.33° C 67% 1019.1 hPa 0 mm - 23 W/m² -
1788237308 18.33° C 69% 1018.9 hPa 0 mm - 8 W/m² -
1788236708 18.33° C 68% 1018.8 hPa 0 mm - 0 W/m² -
1788236108 17.78° C 72% 1018.8 hPa 0 mm - 0 W/m² -
1788235507 17.78° C 74% 1018.7 hPa 0 mm - 0 W/m² -
1788234908 17.78° C 76% 1018.7 hPa 0 mm - 0 W/m² -

* Rain latest hour (hover to see other rain measurements)
** Current wind speed in m/s (hover to see current wind gust speed)